Change the Weather History Date:

Wednesday, November 21, 2012

  Actual Average Record
Temperature  
Mean Temperature 45 °F -  
Max Temperature 58 °F 55 °F 77 °F (1999)
Min Temperature 31 °F 34 °F 19 °F (2000)
Degree Days  
Heating Degree Days 20    
Moisture  
Dew Point 33 °F    
Average Humidity 81    
Maximum Humidity 100    
Minimum Humidity 27    
Precipitation  
Precipitation 0.00 in - - ()
Sea Level Pressure  
Sea Level Pressure 30.19 in    
Wind  
Wind Speed 0 mph (NNW)    
Max Wind Speed 8 mph    
Max Gust Speed -    
Visibility 8 miles    
Events      
Averages and records for this station are not official NWS values.
T = Trace of Precipitation, MM = Missing Value Source: NWS Daily Summary

Daily Weather History Graph

Daily Weather History Graph

Search for Another Location

Airport or City:

Trip Planner

Search our weather history database for the weather conditions in past years. The results will help you decide how hot, cold, wet, or windy it might be!

Date:

Astronomy

Nov. 21, 2012 Rise Set
Actual Time 6:58 AM EST 4:51 PM EST
Civil Twilight 6:29 AM EST 5:19 PM EST
Nautical Twilight 5:56 AM EST 5:52 PM EST
Astronomical Twilight 5:25 AM EST 6:24 PM EST
Moon 1:03 PM EST (11/21) 12:18 AM EST (11/21)
Length of Visible Light 10h 50m
Length of Day
9h 53m
First Quarter, 61% of the Moon is Illuminated
Nov 21
First Quarter
Nov 28
Full
Dec 6
Last Quarter
Dec 13
New
Dec 20
First Quarter

Hourly Weather History & Observations

Time (EST) Temp. Windchill Dew Point Humidity Pressure Visibility Wind Dir Wind Speed Gust Speed Precip Events Conditions
12:03 AM 39.2 °F - 37.4 °F 93% 30.16 in 9.0 mi Calm Calm - N/A   Partly Cloudy
12:04 AM 39.2 °F - 37.4 °F 93% 30.16 in 9.0 mi Calm Calm - N/A   Partly Cloudy
12:43 AM 37.4 °F - 35.6 °F 93% 30.15 in 7.0 mi Calm Calm - N/A   Clear
12:55 AM 37.0 °F - 36.3 °F 97% 30.15 in 7.0 mi Calm Calm - N/A   Clear
1:02 AM 37.4 °F - 35.6 °F 93% 30.15 in 8.0 mi Calm Calm - N/A   Clear
1:15 AM 35.6 °F - 35.6 °F 100% 30.15 in 7.0 mi Calm Calm - N/A   Clear
1:45 AM 37.4 °F - 35.6 °F 93% 30.16 in 9.0 mi Calm Calm - N/A   Clear
1:55 AM 36.7 °F - 35.8 °F 97% 30.16 in 9.0 mi Calm Calm - N/A   Clear
2:13 AM 35.6 °F - 35.6 °F 100% 30.16 in 8.0 mi Calm Calm - N/A   Scattered Clouds
2:30 AM 35.6 °F - 35.6 °F 100% 30.16 in 7.0 mi Calm Calm - N/A   Mostly Cloudy
2:44 AM 37.4 °F - 35.6 °F 93% 30.16 in 8.0 mi Calm Calm - N/A   Overcast
2:47 AM 37.4 °F - 35.6 °F 93% 30.16 in 9.0 mi Calm Calm - N/A   Overcast
2:55 AM 37.0 °F - 36.5 °F 98% 30.16 in 10.0 mi Calm Calm - N/A   Overcast
3:26 AM 37.4 °F - 35.6 °F 93% 30.16 in 7.0 mi Calm Calm - N/A   Overcast
3:34 AM 37.4 °F - 35.6 °F 93% 30.16 in 7.0 mi Calm Calm - N/A   Overcast
3:50 AM 35.6 °F - 35.6 °F 100% 30.16 in 7.0 mi Calm Calm - N/A   Mostly Cloudy
3:55 AM 36.5 °F - 35.8 °F 97% 30.16 in 7.0 mi Calm Calm - N/A   Scattered Clouds
4:23 AM 35.6 °F - 33.8 °F 93% 30.17 in 5.0 mi Calm Calm - N/A   Clear
4:47 AM 35.6 °F - 33.8 °F 93% 30.17 in 7.0 mi Calm Calm - N/A   Clear
4:55 AM 35.6 °F - 35.1 °F 98% 30.17 in 5.0 mi Calm Calm - N/A   Clear
5:15 AM 33.8 °F - 33.8 °F 100% 30.17 in 4.0 mi Calm Calm - N/A   Clear
5:55 AM 32.9 °F - 32.4 °F 98% 30.18 in 2.5 mi Calm Calm - N/A   Clear
6:55 AM 32.7 °F - 32.5 °F 99% 30.19 in 6.0 mi Calm Calm - N/A   Clear
7:07 AM 33.8 °F - 33.8 °F 100% 30.20 in 2.5 mi Calm Calm - N/A   Clear
7:10 AM 33.8 °F - 33.8 °F 100% 30.20 in 3.0 mi Calm Calm - N/A   Clear
7:15 AM 32.0 °F - 32.0 °F 100% 30.21 in 2.5 mi Calm Calm - N/A   Clear
7:24 AM 33.8 °F - 32.0 °F 93% 30.21 in 3.0 mi Calm Calm - N/A   Clear
7:55 AM 35.1 °F - 34.9 °F 99% 30.22 in 5.0 mi Calm Calm - N/A   Clear
8:55 AM 44.1 °F 42.5 °F 39.0 °F 82% 30.23 in 9.0 mi WNW 3.5 mph - N/A   Clear
9:55 AM 50.2 °F - 35.2 °F 57% 30.23 in 10.0 mi NNW 4.6 mph - N/A   Clear
10:55 AM 53.1 °F - 32.0 °F 45% 30.22 in 10.0 mi Variable 3.5 mph - N/A   Clear
11:55 AM 54.9 °F - 28.2 °F 36% 30.21 in 10.0 mi Variable 5.8 mph - N/A   Clear
12:55 PM 57.2 °F - 26.6 °F 31% 30.19 in 10.0 mi NW 8.1 mph - N/A   Clear
1:55 PM 58.1 °F - 25.2 °F 28% 30.18 in 10.0 mi North 6.9 mph - N/A   Clear
2:55 PM 57.9 °F - 23.7 °F 27% 30.18 in 10.0 mi NNE 4.6 mph - N/A   Clear
3:55 PM 57.0 °F - 23.9 °F 28% 30.18 in 10.0 mi Calm Calm - N/A   Clear
4:55 PM 52.5 °F - 24.4 °F 34% 30.19 in 10.0 mi Calm Calm - N/A   Clear
5:55 PM 44.1 °F - 27.1 °F 51% 30.21 in 10.0 mi Calm Calm - N/A   Clear
6:55 PM 41.4 °F - 29.8 °F 64% 30.23 in 10.0 mi Calm Calm - N/A   Clear
7:55 PM 39.4 °F - 30.4 °F 70% 30.24 in 10.0 mi Calm Calm - N/A   Clear
8:55 PM 37.9 °F - 30.9 °F 76% 30.24 in 10.0 mi Calm Calm - N/A   Clear
9:55 PM 37.4 °F - 28.6 °F 70% 30.24 in 10.0 mi Calm Calm - N/A   Clear
10:55 PM 35.1 °F - 29.1 °F 79% 30.23 in 10.0 mi Calm Calm - N/A   Clear
11:55 PM 31.6 °F - 28.8 °F 89% 30.24 in 10.0 mi Calm Calm - N/A   Clear